Terug naar catalogus

STARLINK-30701

ActiefCommunicatieVLEO
NORAD 57950·PAYLOAD·🇺🇸 United States

Gelanceerd Sep 25, 2023 vanaf Vandenberg Space Force Base

Loading…

Volgende Passages (komende 24 uur)

TLE

VersSource: CelesTrak SupGP

Epoch: Sep 15, 2026, 01:50 UTC

1 57950C 23148R   26258.07687500 -.00054691  00000+0 -16155-2 0  2584
2 57950  53.1572 221.3464 0001368  94.7392 278.2635 15.34424063    11

Volg STARLINK-30701 in realtime met AllMySat

Download on the App Store